[[{"header":{"parameterUnit":"m.s-1","parameterCategory":1,"la1":30.2991,"la2":30.254,"lo1":-89.0895,"lo2":-89.0444,"dy":0.0017,"dx":0.0017,"nx":28,"ny":28,"refTime":"2023-07-29T21:00:00:Z","depth":0,"parameterNumber":2,"parameterNumberName":"U-component_of_WINDS"},"data":[0,0,0,0,0,0,0,0,0,0,0,0,0,0,0,0,0,0,0,0,0,0,0,0,0,0,0,0,0,0,0,0,0,0,0,0,0,0,0,0,0,0,0,0,0,0,0,0,0,0,0,0,0,0,0,0,0,0,1.8558,1.8557,0,1.8503,1.8502,1.8501,1.8362,1.8359,1.8356,1.8354,1.83,1.8301,1.8302,0,0,0,0,0,0,0,0,0,0,0,0,0,1.8546,1.8547,1.8558,1.8557,1.8556,1.8503,1.8502,1.8501,1.8363,1.8359,1.8356,1.8352,1.8299,1.8301,1.8303,0,0,0,0,0,0,0,0,0,0,0,0,0,1.8527,1.8547,1.8558,1.8481,1.8473,1.8503,1.8502,1.8501,1.8363,1.8359,1.8355,1.835,1.8299,1.8301,1.8303,1.8404,0,0,1.8309,1.831,0,0,0,0,0,0,0,0,1.8528,1.8528,1.8493,1.8486,1.8478,1.8435,1.8478,1.8469,1.8365,1.8405,1.8353,1.8348,1.8349,1.8346,1.8346,1.8401,1.8399,1.8309,1.831,1.8311,1.8312,0,0,0,0,0,0,0,1.853,1.8529,1.8536,1.8492,1.8483,1.845,1.8442,1.8476,1.8403,1.8401,1.8391,1.8386,1.8344,1.8344,1.8343,1.8398,1.8309,1.8311,1.8312,1.8313,1.8537,1.8541,0,0,0,0,0,0,1.8542,1.8531,1.8538,1.8534,1.8493,1.8454,1.8445,1.8453,1.8402,1.839,1.839,1.838,1.8343,1.8341,1.8341,1.8458,1.8311,1.8313,1.8314,1.8532,1.8538,1.8543,0,0,0,0,0,0,1.8542,1.8544,1.854,1.853,1.8527,1.8459,1.8468,1.8454,1.8454,1.8393,1.838,1.8404,1.8339,1.8338,1.839,1.8454,1.8314,1.8316,1.8527,1.8534,1.854,1.8692,0,0,0,0,0,0,1.8542,1.8545,1.8581,1.8532,1.8528,1.8589,1.8472,1.8456,1.8458,1.8444,1.8403,1.8391,1.8336,1.8388,1.8392,1.8454,1.8317,1.852,1.853,1.8538,1.8681,1.8704,1.8723,0,0,0,0,0,1.8542,1.8626,1.8584,1.8586,1.8572,1.8593,1.8591,1.8524,1.8464,1.8501,1.8462,1.8393,1.8446,1.8394,1.8397,1.8462,1.8516,1.8527,1.8538,1.8672,1.8699,1.8722,0,0,0,0,0,0,1.8686,1.8618,1.8571,1.8641,1.8624,1.8569,1.8614,1.8555,1.8555,1.8542,1.846,1.8452,1.8516,1.8493,1.8436,1.8558,1.847,1.8482,1.8571,1.8596,1.8617,1.8622,1.8319,0,0,0,0,0,1.8725,1.8746,1.8686,1.8754,1.8748,1.8683,1.8689,1.864,1.8619,1.8611,1.8576,1.8559,1.8572,1.8583,1.8591,1.8677,1.8667,1.8723,1.8744,1.8761,1.8773,1.882,1.8845,1.8578,1.8578,1.8578,0,0,1.8807,1.8773,1.8792,1.8782,1.8763,1.8789,1.8678,1.8709,1.8728,1.8616,1.8663,1.8637,1.8613,1.8683,1.8712,1.8666,1.8844,1.8775,1.8789,1.8792,1.8833,1.8859,1.8881,1.8586,1.8584,1.8583,0,0,1.8971,1.8946,1.9001,1.8984,1.8957,1.8913,1.8927,1.8882,1.886,1.8906,1.8823,1.8845,1.8868,1.8856,1.8852,1.9013,1.8951,1.9018,1.9128,1.9174,1.9196,1.9214,1.9274,1.9296,1.903,1.903,1.903,0,1.9077,1.9111,1.9037,1.9074,1.9073,1.8973,1.903,1.9017,1.8994,1.8997,1.8946,1.8975,1.8951,1.9018,1.9058,1.9058,1.9072,1.9023,1.9198,1.9216,1.9232,1.9289,1.9311,1.9039,1.9038,1.9037,1.9036,0,1.9244,1.927,1.9317,1.9298,1.9303,1.9349,1.9284,1.9297,1.9248,1.921,1.926,1.9228,1.923,1.9241,1.9193,1.9303,1.9276,1.9213,1.9123,1.9267,1.9319,1.934,1.9051,1.9048,1.9045,1.9043,0,0,1.9497,1.9437,1.9456,1.9447,1.941,1.9429,1.9472,1.9473,1.9488,1.9475,1.9511,1.9534,1.9476,1.9473,1.9422,1.9463,1.9596,1.9394,1.9393,1.9436,1.9719,1.9769,1.9795,1.9553,1.9557,1.956,1.9722,0,1.9653,1.9723,1.9658,1.9741,1.9765,1.9671,1.9708,1.9691,1.9657,1.9674,1.9636,1.9656,1.9576,1.9574,1.9609,1.9572,1.9652,1.9559,1.9588,1.959,1.96,1.9821,1.9874,2.0028,1.9741,1.9745,1.9747,0,1.9845,1.9842,1.9928,1.9888,1.9895,1.993,1.9928,1.9944,1.9923,1.9895,1.9893,1.9831,1.9872,1.9783,1.984,1.9779,1.9787,1.9771,1.9775,1.9777,1.968,1.9833,2.0075,2.0099,1.9778,1.9775,1.9773,0,2.0025,2.0042,2.0096,2.0091,2.0045,2.0072,2.0054,2.0028,2.0034,2.0032,2.0035,2.0038,2.0041,2.0045,1.9987,1.9927,2.0053,1.9958,2.0034,2.0036,2.0066,2.0066,2.0317,2.0067,2.0067,2.0067,2.0066,0,2.0207,2.0264,2.0177,2.021,2.0272,2.0197,2.0261,2.0233,2.0212,2.024,2.0158,2.0186,2.0106,2.0126,2.0081,2.0137,2.0138,2.0119,2.0107,2.0128,2.0131,2.0134,2.0123,2.0073,2.0071,2.007,2.0069,0,2.0419,2.0362,2.0416,2.0368,2.0357,2.0405,2.0365,2.0395,2.0356,2.0393,2.0397,2.0337,2.0357,2.0298,2.0309,2.0278,2.0361,2.033,2.0369,2.036,2.0441,2.0435,2.0704,2.0737,2.0465,2.0467,2.047,0,2.0541,2.0583,2.054,2.0553,2.0539,2.056,2.0566,2.0495,2.0504,2.0485,2.0518,2.0531,2.0538,2.0575,2.0533,2.0542,2.0512,2.0605,2.0513,2.0534,2.0517,2.0517,2.0522,2.0626,2.0629,2.0632,2.0634,0,2.0765,2.0735,2.0746,2.0749,2.0758,2.0756,2.0749,2.0764,2.0687,2.0703,2.0722,2.0728,2.0739,2.0755,2.0754,2.0737,2.0675,2.0663,2.0682,2.0706,2.0728,2.072,2.0424,2.0658,2.0656,2.0654,2.0653,2.0652,2.0937,2.0971,2.0947,2.0963,2.095,2.0945,2.0972,2.0937,2.0952,2.0956,2.0912,2.0942,2.0921,2.0914,2.0904,2.0927,2.0884,2.091,2.0917,2.0926,2.0941,2.0722,2.0926,2.0925,2.0925,2.0924,2.0923,0,2.116,2.1139,2.1155,2.1147,2.1161,2.1099,2.1088,2.1104,2.1131,2.1117,2.1125,2.115,2.1164,2.1124,2.1133,2.116,2.1131,2.1165,2.1164,2.1161,2.0977,2.0962,2.1188,2.1188,2.1187,2.1187,2.1187,2.1187,2.1277,2.1332,2.13,2.1349,2.1328,2.1356,2.1356,2.1352,2.1341,2.1371,2.1383,2.1356,2.1332,2.1339,2.1351,2.1339,2.1347,2.1392,2.137,2.1199,2.1174,2.1149,2.1135,2.1393,2.1394,2.1553,2.1554,2.1555]},{"header":{"parameterUnit":"m.s-1","parameterCategory":1,"la1":30.2991,"la2":30.254,"lo1":-89.0895,"lo2":-89.0444,"dy":0.0017,"dx":0.0017,"nx":28,"ny":28,"refTime":"2023-07-29T21:00:00:Z","depth":0,"parameterNumber":3,"parameterNumberName":"V-component_of_WINDS"},"data":[0,0,0,0,0,0,0,0,0,0,0,0,0,0,0,0,0,0,0,0,0,0,0,0,0,0,0,0,0,0,0,0,0,0,0,0,0,0,0,0,0,0,0,0,0,0,0,0,0,0,0,0,0,0,0,0,0,0,-1.9962,-1.9963,0,-2.0046,-2.0046,-2.0047,-2.0052,-2.0051,-2.0051,-2.005,-2.0132,-2.0135,-2.0138,0,0,0,0,0,0,0,0,0,0,0,0,0,-1.9802,-1.9805,-1.9961,-1.9963,-1.9964,-2.0045,-2.0046,-2.0048,-2.0053,-2.0051,-2.005,-2.0049,-2.0131,-2.0135,-2.0138,0,0,0,0,0,0,0,0,0,0,0,0,0,-1.9877,-1.9806,-1.9961,-1.9976,-1.9978,-2.0045,-2.0047,-2.0048,-2.0053,-2.0051,-2.005,-2.0049,-2.013,-2.0134,-2.0139,-2.0196,0,0,-2.0153,-2.0155,0,0,0,0,0,0,0,0,-1.9873,-1.9883,-1.9973,-1.9975,-1.9978,-2.0037,-2.0021,-2.0097,-2.0053,-2.0024,-2.005,-2.0048,-2.0101,-2.0108,-2.0127,-2.0199,-2.0203,-2.0153,-2.0156,-2.0158,-2.0159,0,0,0,0,0,0,0,-1.9868,-1.988,-1.9995,-1.9974,-1.9977,-1.9977,-1.9986,-2.0035,-2.007,-2.0027,-2.0027,-2.0037,-2.0102,-2.0122,-2.0129,-2.0204,-2.0153,-2.0157,-2.016,-2.0162,-2.0328,-2.0329,0,0,0,0,0,0,-1.986,-1.9875,-1.9992,-1.9997,-1.9921,-1.9981,-1.9992,-2.0019,-2.0069,-2.0075,-2.0039,-2.0037,-2.0115,-2.0123,-2.0132,-2.0202,-2.0158,-2.0162,-2.0165,-2.0326,-2.0328,-2.033,0,0,0,0,0,0,-1.9857,-1.9871,-1.9989,-1.9936,-1.9951,-1.9986,-2.0017,-2.0022,-2.0042,-2.0078,-2.0084,-2.0053,-2.0114,-2.0125,-2.018,-2.0205,-2.0164,-2.0169,-2.0324,-2.0327,-2.0329,-2.0343,0,0,0,0,0,0,-1.9852,-1.9869,-1.9892,-1.9937,-1.9954,-2.0036,-2.0018,-2.0024,-2.005,-2.005,-2.0093,-2.0099,-2.0114,-2.0173,-2.0185,-2.021,-2.0172,-2.0322,-2.0325,-2.0328,-2.034,-2.0345,-2.035,0,0,0,0,0,-1.9847,-1.9892,-1.9893,-1.9907,-1.9984,-2.0038,-2.0048,-2.0065,-2.0052,-2.0075,-2.0098,-2.0098,-2.02,-2.0179,-2.0192,-2.0219,-2.0321,-2.0324,-2.0328,-2.0338,-2.0344,-2.0349,0,0,0,0,0,0,-1.9847,-1.9898,-1.99,-1.9961,-1.9995,-2.0039,-2.0068,-2.0071,-2.0109,-2.0106,-2.0125,-2.0135,-2.0189,-2.021,-2.0185,-2.0277,-2.0259,-2.0265,-2.0262,-2.0268,-2.0273,-2.0267,-2.0176,0,0,0,0,0,-1.9855,-1.9896,-1.9937,-1.9987,-2.0004,-2.0033,-2.0057,-2.0068,-2.0104,-2.0118,-2.0145,-2.0179,-2.0219,-2.0244,-2.0283,-2.0343,-2.0352,-2.0368,-2.0373,-2.0377,-2.0382,-2.0415,-2.0423,-2.0342,-2.0342,-2.0342,0,0,-1.987,-1.9903,-1.9927,-1.9988,-2.0016,-2.0057,-2.0045,-2.0089,-2.012,-2.0124,-2.0178,-2.0199,-2.0238,-2.0296,-2.0322,-2.0314,-2.0407,-2.0382,-2.0384,-2.0388,-2.042,-2.0428,-2.0434,-2.0345,-2.0344,-2.0344,0,0,-1.992,-1.9949,-1.9994,-2.0022,-2.0065,-2.0084,-2.0095,-2.0138,-2.0153,-2.0207,-2.0212,-2.0247,-2.0316,-2.0343,-2.0366,-2.0427,-2.0428,-2.0439,-2.0464,-2.0496,-2.0503,-2.0508,-2.053,-2.0538,-2.0444,-2.0444,-2.0444,0,-1.9933,-1.9997,-2.0016,-2.0061,-2.0087,-2.0095,-2.014,-2.0166,-2.0219,-2.0236,-2.0227,-2.0313,-2.034,-2.0404,-2.0419,-2.0437,-2.045,-2.0434,-2.05,-2.0506,-2.0512,-2.0533,-2.0541,-2.0445,-2.0445,-2.0445,-2.0445,0,-2.0011,-2.0055,-2.0086,-2.0139,-2.0169,-2.0213,-2.0238,-2.0266,-2.0274,-2.0294,-2.0349,-2.0382,-2.0427,-2.0443,-2.0451,-2.0509,-2.0503,-2.0496,-2.0479,-2.052,-2.054,-2.0549,-2.0447,-2.0446,-2.0446,-2.0446,0,0,-2.0063,-2.0127,-2.0138,-2.0162,-2.021,-2.0244,-2.0288,-2.0334,-2.0358,-2.0393,-2.0431,-2.0489,-2.0484,-2.051,-2.0521,-2.0549,-2.0596,-2.054,-2.0541,-2.0549,-2.0662,-2.0666,-2.0675,-2.0597,-2.0598,-2.06,-2.0659,0,-2.0118,-2.02,-2.0219,-2.0288,-2.0329,-2.0336,-2.0375,-2.0408,-2.0428,-2.0465,-2.0486,-2.0527,-2.0517,-2.0533,-2.0561,-2.0584,-2.0619,-2.058,-2.0631,-2.0633,-2.0622,-2.0686,-2.0691,-2.0745,-2.0666,-2.0668,-2.0669,0,-2.0193,-2.0233,-2.0307,-2.035,-2.0368,-2.0402,-2.0446,-2.0481,-2.0519,-2.0531,-2.0561,-2.0569,-2.0615,-2.0595,-2.0658,-2.0632,-2.0654,-2.0668,-2.0671,-2.0676,-2.0653,-2.0693,-2.0762,-2.0771,-2.0681,-2.068,-2.0679,0,-2.0224,-2.0295,-2.0349,-2.0369,-2.0421,-2.0445,-2.0468,-2.0504,-2.0531,-2.0568,-2.0586,-2.0628,-2.0651,-2.0683,-2.0702,-2.0686,-2.0764,-2.0746,-2.0775,-2.0775,-2.0791,-2.079,-2.0865,-2.0805,-2.0805,-2.0805,-2.0805,0,-2.0284,-2.0329,-2.0364,-2.0397,-2.0447,-2.0468,-2.0517,-2.0539,-2.0571,-2.0608,-2.0617,-2.0651,-2.0674,-2.0711,-2.0726,-2.0777,-2.0787,-2.0797,-2.0801,-2.0797,-2.0796,-2.0811,-2.0808,-2.0807,-2.0807,-2.0806,-2.0806,0,-2.0327,-2.0352,-2.0411,-2.0456,-2.0468,-2.0503,-2.0541,-2.0573,-2.0593,-2.0639,-2.0651,-2.0682,-2.0726,-2.0749,-2.0803,-2.0813,-2.087,-2.0871,-2.0858,-2.0859,-2.0888,-2.0885,-2.0976,-2.0989,-2.092,-2.0921,-2.0921,0,-2.0363,-2.0398,-2.0447,-2.0473,-2.0496,-2.0538,-2.0565,-2.0587,-2.0615,-2.0661,-2.0687,-2.0732,-2.0769,-2.0839,-2.0866,-2.0908,-2.091,-2.0939,-2.0916,-2.0911,-2.0911,-2.0908,-2.0912,-2.0943,-2.0944,-2.0944,-2.0945,0,-2.0425,-2.0436,-2.0476,-2.0521,-2.0554,-2.059,-2.0625,-2.0646,-2.0673,-2.0704,-2.075,-2.0779,-2.0836,-2.088,-2.0924,-2.0946,-2.095,-2.0952,-2.0961,-2.0957,-2.0948,-2.0954,-2.0869,-2.0949,-2.0949,-2.0949,-2.0948,-2.0948,-2.0466,-2.0498,-2.0537,-2.0582,-2.0611,-2.0644,-2.0676,-2.0701,-2.074,-2.0789,-2.0799,-2.0848,-2.0884,-2.0944,-2.0968,-2.1005,-2.0999,-2.1012,-2.1015,-2.1018,-2.102,-2.0942,-2.1013,-2.1013,-2.1013,-2.1013,-2.1013,0,-2.0529,-2.0555,-2.0595,-2.0646,-2.068,-2.0682,-2.0722,-2.075,-2.0794,-2.0828,-2.0865,-2.0918,-2.0961,-2.0992,-2.1036,-2.106,-2.1063,-2.1071,-2.1069,-2.1074,-2.1023,-2.1011,-2.1068,-2.1068,-2.1068,-2.1068,-2.1068,-2.1068,-2.0565,-2.0619,-2.0635,-2.0703,-2.0729,-2.0778,-2.08,-2.083,-2.0858,-2.0917,-2.0954,-2.0974,-2.1007,-2.1053,-2.1093,-2.1101,-2.1116,-2.1124,-2.1132,-2.1084,-2.1078,-2.1072,-2.1061,-2.1128,-2.1128,-2.118,-2.1181,-2.1181]}]]